Location: Unspecified
(0.0000°N, 0.0000°E)
Time: 10:13:09
(UTC+00:00)

Courier 1B Rocket - Pass Details

Date: 26 May 2026
Orbit: 920 x 1201 km, 28.2° (Epoch: 9 June)

Event Time Altitude Azimuth Distance (km) Brightness Sun altitude
Rises 09:44:42 0° 318° (NW) 3,538 7.9 51.4°
Reaches altitude 10° 09:47:36 10° 328° (NNW) 2,599 7.4 52.0°
Maximum altitude 09:53:00 31° 29° (NNE) 1,581 7.4 53.1°
Drops below altitude 10° 09:58:33 10° 89° (E) 2,683 7.9 54.2°
Sets 10:01:35 0° 99° (E) 3,670 8.3 54.7°
